DW5247 Lemo FI current weather conditions

sailwx.info

Wind from 180

Air temperature 9.4° C
Dewpoint 0.6° C

Last reported at 2016-May-06 21:42 UTC.
Time now 2016-May-06 22:31 UTC

Location: N 62°41' E 029°49'.
View on Google Maps.

See reports from other nearby stations

  
Tides and Currents Weather Stations Pressure Air Temp Water Temp Dewpoint Dewpoint Depression Visibility Wind Speed Wind Dir Waves Ship Positions
date/time (UTC)wind fromknots sea level pressurealtimeterstation pressurevisibilityair tempwater tempwave heightnotes
2016-May-06 21:42 180 9.4
2016-May-06 21:37 180 9.4
2016-May-06 21:32 180 9.4
2016-May-06 21:27 180 9.4
2016-May-06 21:22 180 10.0
2016-May-06 21:17 180 10.0
2016-May-06 21:12 180 10.6
2016-May-06 21:07 180 10.6
2016-May-06 20:57 180 11.1
2016-May-06 20:52 180 11.1
2016-May-06 20:47 180 11.7
2016-May-06 20:42 180 11.7
2016-May-06 20:37 180 11.7
2016-May-06 20:32 180 12.2
2016-May-06 20:27 203 12.2
2016-May-06 20:22 203 12.8
2016-May-06 20:17 158 12.8
2016-May-06 20:12 135 0 gusting 1 12.8
2016-May-06 20:07 135 0 gusting 1 13.3
2016-May-06 20:02 158 0 gusting 1 13.3
2016-May-06 19:57 180 1 gusting 1 13.3
2016-May-06 19:52 180 1 gusting 1 13.9
2016-May-06 19:47 180 1 gusting 1 13.9
2016-May-06 19:42 158 1 gusting 2 13.9
2016-May-06 19:37 180 1 gusting 2 14.4
2016-May-06 19:32 158 0 gusting 1 14.4
2016-May-06 19:27 135 1 gusting 1 14.4
2016-May-06 19:22 135 1 gusting 1 14.4
2016-May-06 19:17 158 1 gusting 1 15.0
2016-May-06 19:12 158 0 gusting 1 15.0
2016-May-06 19:07 158 0 gusting 1 15.6
2016-May-06 19:02 158 0 gusting 1 15.6
2016-May-06 18:57 158 0 gusting 1 15.6
2016-May-06 18:52 158 0 gusting 1 16.1
2016-May-06 18:47 180 16.7
2016-May-06 18:42 158 16.7
2016-May-06 18:37 158 17.2
2016-May-06 18:32 158 17.2
2016-May-06 18:27 158 17.8
2016-May-06 18:22 180 17.8
2016-May-06 18:17 158 17.8
2016-May-06 18:12 135 18.3
2016-May-06 18:07 158 18.3
2016-May-06 18:02 135 18.3
2016-May-06 17:57 158 0 gusting 3 18.9
2016-May-06 17:52 135 1 gusting 4 18.9
2016-May-06 17:47 135 1 gusting 4 18.9
2016-May-06 17:42 135 2 gusting 5 19.4
2016-May-06 17:37 135 2 gusting 5 19.4
2016-May-06 17:32 113 1 gusting 3 19.4
2016-May-06 17:27 180 1 gusting 3 20.0
2016-May-06 17:22 090 0 gusting 2 20.0
2016-May-06 17:17 068 0 gusting 3 20.0
2016-May-06 17:12 135 0 gusting 3 20.0
2016-May-06 17:07 135 1 gusting 3 20.6
2016-May-06 17:02 158 2 gusting 5 20.0
2016-May-06 16:57 158 1 gusting 5 20.6
2016-May-06 16:52 248 1 gusting 5 20.6
2016-May-06 16:47 180 1 gusting 5 20.6
2016-May-06 16:42 203 2 gusting 5 20.6
2016-May-06 16:37 180 2 gusting 5 20.6
2016-May-06 16:32 180 3 gusting 5 20.6
2016-May-06 16:27 180 2 gusting 5 20.6
2016-May-06 16:22 180 3 gusting 5 20.6
2016-May-06 16:17 203 3 gusting 6 20.6
2016-May-06 16:12 158 3 gusting 6 21.1
2016-May-06 16:07 158 3 gusting 3 20.6
2016-May-06 16:02 203 2 gusting 6 21.1
2016-May-06 15:57 158 1 gusting 6 21.1
2016-May-06 15:52 248 3 gusting 6 21.1
2016-May-06 15:47 158 3 gusting 6 21.1
2016-May-06 15:42 158 2 gusting 9 21.1
2016-May-06 15:37 158 3 gusting 9 21.1
2016-May-06 15:32 158 4 gusting 9 21.1
2016-May-06 15:27 113 3 gusting 4 21.1
2016-May-06 15:22 135 2 gusting 4 21.1
2016-May-06 15:17 158 2 gusting 4 21.1
2016-May-06 15:12 158 2 gusting 7 21.7
2016-May-06 15:07 180 2 gusting 7 21.7
2016-May-06 15:02 203 3 gusting 7 21.7
2016-May-06 14:57 180 2 gusting 11 21.7
2016-May-06 14:52 180 4 gusting 11 21.7
2016-May-06 14:47 158 5 gusting 11 21.7
2016-May-06 14:42 113 3 gusting 6 21.7
2016-May-06 14:37 158 3 gusting 6 21.7
2016-May-06 14:32 135 3 gusting 7 21.7
2016-May-06 14:27 090 3 gusting 7 21.7
2016-May-06 14:22 203 3 gusting 9 21.7
2016-May-06 14:17 225 4 gusting 9 21.7
2016-May-06 14:12 180 4 gusting 6 21.7
2016-May-06 14:07 135 4 gusting 6 21.7
2016-May-06 14:02 225 5 gusting 6 22.2
2016-May-06 13:57 180 4 gusting 6 22.2
2016-May-06 13:52 135 1 gusting 4 22.2
2016-May-06 13:47 225 0 gusting 6 22.2
2016-May-06 13:42 180 2 gusting 6 22.2
2016-May-06 13:32 135 3 gusting 8 22.2
2016-May-06 13:27 180 4 gusting 8 22.2
2016-May-06 13:22 135 5 gusting 8 22.2
2016-May-06 13:17 180 3 gusting 3 22.2
2016-May-06 13:12 068 1 gusting 6 22.2
2016-May-06 13:07 158 2 gusting 9 22.2
2016-May-06 13:02 158 4 gusting 9 21.7
2016-May-06 12:57 158 5 gusting 9 21.7
2016-May-06 12:52 158 5 gusting 7 21.7
2016-May-06 12:42 180 4 gusting 8 21.7
2016-May-06 12:32 158 4 gusting 6 21.7
2016-May-06 12:27 180 4 gusting 8 21.7
2016-May-06 12:22 158 4 gusting 9 21.7
2016-May-06 12:17 180 3 gusting 11 21.7
2016-May-06 12:12 158 4 gusting 11 21.7
2016-May-06 12:07 203 3 gusting 11 21.7
2016-May-06 12:02 180 3 gusting 6 21.7
2016-May-06 11:57 090 1 gusting 6 21.7
2016-May-06 11:52 225 2 gusting 5 21.7
2016-May-06 11:47 068 2 gusting 4 21.7
2016-May-06 11:42 068 2 gusting 4 21.7
2016-May-06 11:37 135 2 gusting 4 21.7
2016-May-06 11:32 113 2 gusting 6 21.7
2016-May-06 11:27 068 2 gusting 6 21.7
2016-May-06 11:22 135 2 gusting 6 21.7
2016-May-06 11:17 113 3 gusting 6 21.7
2016-May-06 11:12 023 2 gusting 9 21.7
2016-May-06 11:07 090 2 gusting 9 21.7
2016-May-06 11:02 023 3 gusting 9 21.7
2016-May-06 10:57 068 3 gusting 7 21.7
2016-May-06 10:52 068 2 gusting 8 21.7
2016-May-06 10:47 090 3 gusting 8 21.7
2016-May-06 10:42 068 2 gusting 8 21.7
2016-May-06 10:37 135 2 gusting 5 21.7
2016-May-06 10:32 023 3 gusting 5 21.7
2016-May-06 10:27 090 2 gusting 5 21.7
2016-May-06 10:22 068 2 gusting 6 21.7
2016-May-06 10:17 068 2 gusting 6 21.7
2016-May-06 10:12 068 2 gusting 6 21.7
2016-May-06 10:07 113 2 gusting 6 21.7
2016-May-06 10:02 113 3 gusting 6 21.7
2016-May-06 09:57 180 4 gusting 6 21.7
2016-May-06 09:52 180 4 gusting 6 21.7
2016-May-06 09:47 113 3 gusting 6 21.7
2016-May-06 09:42 113 3 gusting 4 21.7
2016-May-06 09:37 068 3 gusting 4 21.7
2016-May-06 09:32 180 2 gusting 4 21.7
2016-May-06 09:27 090 2 gusting 3 21.7
2016-May-06 09:22 068 2 gusting 3 21.1
2016-May-06 09:17 315 2 gusting 2 21.1
2016-May-06 09:12 135 1 gusting 2 21.1
2016-May-06 09:07 135 1 gusting 5 21.1
2016-May-06 09:02 135 1 gusting 5 21.1
2016-May-06 08:57 113 2 gusting 5 21.1
2016-May-06 08:52 158 2 gusting 4 20.6
2016-May-06 08:47 338 3 gusting 4 20.6
2016-May-06 08:42 180 2 gusting 4 20.6
2016-May-06 08:37 180 2 gusting 5 20.6
2016-May-06 08:32 113 2 gusting 5 20.6
2016-May-06 08:27 293 2 gusting 4 20.6
2016-May-06 08:22 068 2 gusting 4 20.0
2016-May-06 08:17 068 1 gusting 4 20.0
2016-May-06 08:12 135 2 gusting 4 19.4
2016-May-06 08:07 180 2 gusting 4 19.4
2016-May-06 08:02 203 1 gusting 4 19.4
2016-May-06 07:57 068 1 gusting 6 18.9
2016-May-06 07:52 068 1 gusting 6 18.9
2016-May-06 07:47 045 1 gusting 6 18.9
2016-May-06 07:42 158 1 gusting 3 18.3
2016-May-06 07:37 068 1 gusting 3 18.3
2016-May-06 07:32 068 0 gusting 2 18.3
2016-May-06 07:27 315 0 gusting 2 18.3
2016-May-06 07:22 135 1 gusting 2 18.3
2016-May-06 07:17 068 1 gusting 3 18.3
2016-May-06 07:12 068 1 gusting 3 17.8
2016-May-06 07:07 023 1 gusting 3 17.8
2016-May-06 07:02 135 2 gusting 3 17.8
2016-May-06 06:57 135 2 gusting 3 17.8
2016-May-06 06:52 068 2 gusting 3 17.8
2016-May-06 06:47 090 1 gusting 3 17.2
2016-May-06 06:42 135 0 gusting 3 17.2
2016-May-06 06:37 068 1 gusting 2 16.7
2016-May-06 06:32 068 0 gusting 2 16.7
2016-May-06 06:27 113 0 gusting 3 16.7
2016-May-06 06:22 068 1 gusting 3 16.1
2016-May-06 06:17 068 1 gusting 1 16.1
2016-May-06 06:12 023 0 gusting 1 15.6
2016-May-06 06:07 180 0 gusting 1 15.6
2016-May-06 06:02 090 15.0
2016-May-06 05:57 023 0 gusting 1 15.0
2016-May-06 05:52 023 0 gusting 1 14.4
2016-May-06 05:47 338 0 gusting 1 14.4
2016-May-06 05:42 113 13.9
2016-May-06 05:37 023 0 gusting 2 13.3
2016-May-06 05:32 023 0 gusting 2 13.3
2016-May-06 05:27 023 0 gusting 1 13.3
2016-May-06 05:22 338 0 gusting 1 12.8
2016-May-06 05:17 315 0 gusting 1 12.2
2016-May-06 05:12 338 0 gusting 2 11.7
2016-May-06 05:07 11.7
2016-May-06 05:02 023 0 gusting 1 11.1
2016-May-06 04:57 068 0 gusting 1 11.1
2016-May-06 04:52 023 0 gusting 1 10.6
2016-May-06 04:47 023 10.0
2016-May-06 04:42 023 0 gusting 1 10.0
2016-May-06 04:37 023 0 gusting 1 9.4
2016-May-06 04:32 068 0 gusting 2 9.4
2016-May-06 04:27 068 0 gusting 2 8.9
2016-May-06 04:22 023 1 gusting 1 8.3
2016-May-06 04:17 315 1 gusting 1 8.3
2016-May-06 04:12 315 0 gusting 1 7.8
2016-May-06 04:07 315 7.8
2016-May-06 04:02 315 7.8
2016-May-06 03:57 315 7.2
2016-May-06 03:52 315 7.2
2016-May-06 03:47 338 6.7
2016-May-06 03:42 315 6.7
2016-May-06 03:37 315 0 gusting 2 6.7
2016-May-06 03:32 315 1 gusting 2 6.7
2016-May-06 03:27 315 1 gusting 2 6.1
2016-May-06 03:22 315 6.1
2016-May-06 03:17 338 6.1
2016-May-06 03:12 248 5.0
2016-May-06 03:07 248 5.0
2016-May-06 03:02 225 5.0
2016-May-06 02:57 338 5.0
2016-May-06 02:52 338 5.0
2016-May-06 02:47 315 5.0
2016-May-06 02:42 068 5.0
2016-May-06 02:37 068 5.0
2016-May-06 02:32 338 5.0
2016-May-06 02:27 248 5.0
2016-May-06 02:22 248 5.0
2016-May-06 02:17 248 5.0
2016-May-06 02:12 248 5.0
2016-May-06 02:07 248 5.0
2016-May-06 02:02 248 5.0
2016-May-06 01:57 248 5.6
2016-May-06 01:52 203 5.6
2016-May-06 01:47 225 5.0
2016-May-06 01:42 225 5.6
2016-May-06 01:37 225 5.6
2016-May-06 01:32 225 5.6
2016-May-06 01:27 225 0 gusting 1 5.6
2016-May-06 01:22 225 0 gusting 1 5.6
2016-May-06 01:17 203 5.6
2016-May-06 01:12 225 1 gusting 2 5.6
2016-May-06 01:07 203 1 gusting 1 5.6
2016-May-06 01:02 203 5.6
2016-May-06 00:57 180 5.6
2016-May-06 00:52 270 5.6
2016-May-06 00:47 270 5.6
2016-May-06 00:42 270 5.6
2016-May-06 00:37 270 5.6
2016-May-06 00:32 270 5.6
2016-May-06 00:27 270 6.1
2016-May-06 00:22 270 6.1
2016-May-06 00:17 248 6.1
2016-May-06 00:12 248 6.1
2016-May-06 00:07 248 6.1
2016-May-06 00:02 225 6.1
2016-May-05 23:57 293 6.1
2016-May-05 23:52 293 6.7
2016-May-05 23:47 293 6.7
2016-May-05 23:42 293 6.7
2016-May-05 23:37 293 6.7
2016-May-05 23:32 293 6.7
2016-May-05 23:27 293 6.7
2016-May-05 23:22 293 7.2
2016-May-05 23:17 293 7.2
2016-May-05 23:12 293 7.2
2016-May-05 23:07 293 7.2
2016-May-05 23:02 293 7.8
2016-May-05 22:57 225 7.2
2016-May-05 22:52 225 7.8
2016-May-05 22:47 225 7.8
2016-May-05 22:42 293 7.8
2016-May-05 22:37 293 7.8
2016-May-05 22:32 293 8.3
2016-May-05 22:27 293 8.3
2016-May-05 22:22 293 8.3
2016-May-05 22:17 315 8.3
2016-May-05 22:12 315 8.3
2016-May-05 22:07 293 8.9
2016-May-05 22:02 225 8.9
2016-May-05 21:57 225 8.9
2016-May-05 21:52 225 8.9
2016-May-05 21:47 225 9.4
2016-May-05 21:42 225 9.4
2016-May-05 21:37 225 9.4
2016-May-05 21:32 225 9.4
2016-May-05 21:27 225 10.0
2016-May-05 21:22 225 10.0
2016-May-05 21:17 225 10.0
2016-May-05 21:12 225 10.6
2016-May-05 21:07 180 10.6
2016-May-05 20:57 203 11.1
2016-May-05 20:52 203 11.1
2016-May-05 20:47 203 11.1
2016-May-05 20:42 203 11.7
2016-May-05 20:37 203 11.7
2016-May-05 20:32 203 12.2
2016-May-05 20:27 203 12.2
2016-May-05 20:22 203 12.2
2016-May-05 20:17 203 12.8
2016-May-05 20:12 203 12.8
2016-May-05 20:07 203 12.8
2016-May-05 20:02 203 13.3
2016-May-05 19:57 203 13.3
2016-May-05 19:52 203 13.3
2016-May-05 19:47 203 0 gusting 1 13.9
2016-May-05 19:42 203 0 gusting 1 13.9
2016-May-05 19:37 203 0 gusting 1 14.4
2016-May-05 19:32 180 0 gusting 1 14.4
2016-May-05 19:27 180 15.0
2016-May-05 19:22 113 15.6
2016-May-05 19:17 113 15.6
2016-May-05 19:12 113 15.6
2016-May-05 19:07 113 16.1
2016-May-05 19:02 113 16.1
2016-May-05 18:57 113 16.7
2016-May-05 18:52 113 16.7
2016-May-05 18:47 113 16.7
2016-May-05 18:42 113 17.2
2016-May-05 18:37 113 17.2
2016-May-05 18:32 113 17.8
2016-May-05 18:27 113 17.8
2016-May-05 18:22 113 17.8
2016-May-05 18:17 113 17.8
2016-May-05 18:12 113 18.3
2016-May-05 18:07 113 18.3
2016-May-05 18:02 113 18.3
2016-May-05 17:57 113 18.3
2016-May-05 17:52 113 18.9
2016-May-05 17:47 113 18.9
2016-May-05 17:42 113 18.9
2016-May-05 17:37 135 18.9
2016-May-05 17:32 135 18.9
2016-May-05 17:27 135 18.9
2016-May-05 17:22 068 18.9
2016-May-05 17:17 068 18.9
2016-May-05 17:12 068 18.9
2016-May-05 17:07 113 18.9
2016-May-05 17:02 090 0 gusting 1 18.9
2016-May-05 16:57 068 0 gusting 1 18.9
2016-May-05 16:52 113 18.9
2016-May-05 16:47 270 18.9
2016-May-05 16:42 068 18.9
2016-May-05 16:37 068 18.9
2016-May-05 16:32 068 18.9
2016-May-05 16:27 068 18.9
2016-May-05 16:22 158 18.9
2016-May-05 16:17 158 18.9
2016-May-05 16:12 158 19.4
2016-May-05 16:07 180 19.4
2016-May-05 16:02 225 19.4
2016-May-05 15:57 113 19.4
2016-May-05 15:52 180 19.4
2016-May-05 15:47 248 0 gusting 4 19.4
2016-May-05 15:42 045 1 gusting 4 20.0
2016-May-05 15:37 203 2 gusting 4 20.0
2016-May-05 15:32 225 1 gusting 4 20.0
2016-May-05 15:27 180 0 gusting 1 20.0
2016-May-05 15:22 248 0 gusting 2 20.0
2016-May-05 15:17 180 0 gusting 1 20.0
2016-May-05 15:12 180 0 gusting 1 20.0
2016-May-05 15:07 068 0 gusting 1 20.0
2016-May-05 15:02 113 0 gusting 2 20.0
2016-May-05 14:57 090 0 gusting 2 20.0
2016-May-05 14:52 135 0 gusting 2 20.0
2016-May-05 14:47 068 0 gusting 2 20.0
2016-May-05 14:42 180 0 gusting 2 20.0
2016-May-05 14:37 045 0 gusting 2 20.0
2016-May-05 14:32 180 0 gusting 2 20.0
2016-May-05 14:27 023 0 gusting 2 20.0
2016-May-05 14:22 113 19.4
2016-May-05 14:17 045 19.4
2016-May-05 14:12 090 19.4
2016-May-05 14:07 023 19.4
2016-May-05 14:02 180 19.4
2016-May-05 13:57 158 1 gusting 6 19.4
2016-May-05 13:52 158 2 gusting 6 19.4
2016-May-05 13:47 180 3 gusting 8 19.4
2016-May-05 13:42 135 3 gusting 8 20.0
2016-May-05 13:37 158 3 gusting 8 20.0
2016-May-05 13:32 180 1 gusting 3 20.6
2016-May-05 13:27 158 1 gusting 3 20.6
2016-May-05 13:22 225 2 gusting 3 20.6
2016-May-05 13:17 180 1 gusting 3 20.6
2016-May-05 13:12 158 1 gusting 3 20.6
2016-May-05 13:07 158 1 gusting 3 20.6
2016-May-05 13:02 225 0 gusting 3 20.6
2016-May-05 12:57 158 1 gusting 3 21.1
2016-May-05 12:52 090 1 gusting 10 20.6
2016-May-05 12:47 225 1 gusting 10 20.6
2016-May-05 12:42 113 2 gusting 10 20.6
2016-May-05 12:37 113 2 gusting 4 20.6
2016-May-05 12:32 113 1 gusting 6 20.6
2016-May-05 12:27 158 1 gusting 6 20.0
2016-May-05 12:22 248 3 gusting 6 20.0
2016-May-05 12:17 180 3 gusting 5 20.0
2016-May-05 12:12 180 3 gusting 5 20.0
2016-May-05 12:07 225 1 gusting 4 20.6
2016-May-05 12:02 225 0 gusting 4 20.6
2016-May-05 11:57 023 1 gusting 4 20.6
2016-May-05 11:52 203 1 gusting 5 20.6
2016-May-05 11:47 248 1 gusting 5 20.0
2016-May-05 11:42 248 2 gusting 5 20.0
2016-May-05 11:37 180 1 gusting 3 20.0
2016-May-05 11:32 315 1 gusting 3 20.0
2016-May-05 11:27 248 1 gusting 3 20.0
2016-May-05 11:22 315 1 gusting 3 20.0
2016-May-05 11:17 338 1 gusting 5 20.0
2016-May-05 11:12 315 0 gusting 5 20.0
2016-May-05 11:07 135 0 gusting 5 20.0
2016-May-05 11:02 068 1 gusting 3 20.0
2016-May-05 10:57 023 1 gusting 3 20.0
2016-May-05 10:52 293 1 gusting 3 19.4
2016-May-05 10:47 203 1 gusting 3 19.4
2016-May-05 10:42 045 1 gusting 4 19.4
2016-May-05 10:37 158 1 gusting 4 19.4
2016-May-05 10:32 135 1 gusting 4 19.4
2016-May-05 10:27 270 2 gusting 4 19.4
2016-May-05 10:22 113 1 gusting 4 19.4
2016-May-05 10:17 19.4
2016-May-05 10:12 068 1 gusting 4 19.4
2016-May-05 10:07 135 1 gusting 5 18.9
2016-May-05 10:02 045 2 gusting 5 18.9
2016-May-05 09:57 090 2 gusting 3 18.9
2016-May-05 09:52 068 1 gusting 3 18.9
2016-May-05 09:47 068 1 gusting 2 18.9
2016-May-05 09:42 180 1 gusting 3 18.9
2016-May-05 09:37 068 1 gusting 3 18.3
2016-May-05 09:32 135 1 gusting 3 18.3
2016-May-05 09:27 068 1 gusting 3 18.3
2016-May-05 09:22 203 1 gusting 3 18.3
2016-May-05 09:17 023 1 gusting 4 18.3
2016-May-05 09:12 068 2 gusting 6 17.8
2016-May-05 09:07 068 2 gusting 6 17.8
2016-May-05 09:02 068 2 gusting 4 17.8
2016-May-05 08:57 090 1 gusting 5 17.8
2016-May-05 08:52 135 1 gusting 5 17.8
2016-May-05 08:47 068 1 gusting 3 17.2
2016-May-05 08:42 135 1 gusting 5 17.2
2016-May-05 08:37 045 1 gusting 5 17.2
2016-May-05 08:32 068 2 gusting 5 16.7
2016-May-05 08:27 113 3 gusting 3 16.7
2016-May-05 08:22 045 3 gusting 4 16.7
2016-May-05 08:17 068 2 gusting 4 16.7
2016-May-05 08:12 068 1 gusting 3 16.1
2016-May-05 08:07 315 1 gusting 3 16.1
2016-May-05 08:02 113 1 gusting 3 16.1
2016-May-05 07:57 068 1 gusting 3 15.6
2016-May-05 07:52 090 1 gusting 4 15.0
2016-May-05 07:47 158 1 gusting 4 15.0
2016-May-05 07:42 068 2 gusting 4 14.4
2016-May-05 07:37 023 2 gusting 3 14.4
2016-May-05 07:32 090 2 gusting 4 14.4
2016-May-05 07:27 068 2 gusting 4 13.9
2016-May-05 07:22 090 2 gusting 4 13.9
2016-May-05 07:17 045 1 gusting 3 13.9
2016-May-05 07:12 090 1 gusting 3 13.9
2016-May-05 07:07 090 1 gusting 5 13.9
2016-May-05 07:02 068 2 gusting 5 13.3
2016-May-05 06:57 068 2 gusting 4 13.3
2016-May-05 06:52 068 3 gusting 4 13.3
2016-May-05 06:47 338 2 gusting 3 13.3
2016-May-05 06:42 068 1 gusting 3 13.3
2016-May-05 06:37 068 0 gusting 3 12.8
2016-May-05 06:32 180 1 gusting 4 12.8
2016-May-05 06:27 045 1 gusting 4 12.8
2016-May-05 06:22 068 1 gusting 4 12.8
2016-May-05 06:17 068 1 gusting 4 12.8
2016-May-05 06:12 068 1 gusting 4 12.2
2016-May-05 06:07 045 1 gusting 4 12.2
2016-May-05 06:02 045 2 gusting 3 12.2
2016-May-05 05:57 113 2 gusting 3 12.2
2016-May-05 05:52 068 1 gusting 3 12.2
2016-May-05 05:47 068 2 gusting 3 12.2
2016-May-05 05:42 068 2 gusting 4 12.2
2016-May-05 05:37 068 2 gusting 4 12.2
2016-May-05 05:32 068 2 gusting 6 11.7
2016-May-05 05:27 045 2 gusting 6 11.7
2016-May-05 05:22 068 2 gusting 6 11.7
2016-May-05 05:17 068 3 gusting 6 11.7
2016-May-05 05:12 068 2 gusting 6 11.7
2016-May-05 05:07 113 2 gusting 4 11.7
2016-May-05 05:02 158 1 gusting 4 11.1
2016-May-05 04:57 068 1 gusting 2 11.1
2016-May-05 04:52 068 0 gusting 3 11.1
2016-May-05 04:47 068 0 gusting 3 10.6
2016-May-05 04:42 045 1 gusting 4 10.6
2016-May-05 04:37 068 3 gusting 4 10.6
2016-May-05 04:32 045 2 gusting 3 10.0
2016-May-05 04:27 090 2 gusting 3 10.0
2016-May-05 04:22 068 2 gusting 3 9.4
2016-May-05 04:17 068 1 gusting 2 9.4
2016-May-05 04:12 023 0 gusting 1 9.4
2016-May-05 04:07 068 0 gusting 1 9.4
2016-May-05 04:02 023 8.9
2016-May-05 03:57 023 8.9
2016-May-05 03:52 045 8.9
2016-May-05 03:47 023 8.9
2016-May-05 03:42 023 8.3
2016-May-05 03:37 023 8.3
2016-May-05 03:32 023 8.3
2016-May-05 03:27 023 8.3
2016-May-05 03:22 023 8.3
2016-May-05 03:17 023 8.3
2016-May-05 03:12 338 8.3
2016-May-05 03:07 338 8.3
2016-May-05 03:02 338 8.3
2016-May-05 02:57 315 8.3
2016-May-05 02:52 338 8.3
2016-May-05 02:47 068 8.3
2016-May-05 02:42 068 8.3
2016-May-05 02:37 068 8.3
2016-May-05 02:32 068 7.8
2016-May-05 02:27 068 8.3
2016-May-05 02:22 068 8.3
2016-May-05 02:17 023 7.8
2016-May-05 02:12 203 8.3
2016-May-05 02:07 203 7.8
2016-May-05 02:02 180 7.8
2016-May-05 01:57 180 7.8
2016-May-05 01:52 068 0 gusting 2 7.8
2016-May-05 01:47 023 0 gusting 2 8.3
2016-May-05 01:42 023 7.8
2016-May-05 01:37 023 8.3
2016-May-05 01:32 023 8.3
2016-May-05 01:27 023 8.3
2016-May-05 01:22 045 7.8
2016-May-05 01:17 045 0 gusting 1 7.8
2016-May-05 01:12 023 0 gusting 1 7.8
2016-May-05 01:07 023 0 gusting 0 7.8
2016-May-05 01:02 7.8
2016-May-05 00:57 315 0 gusting 1 7.8
2016-May-05 00:52 338 7.2
2016-May-05 00:47 7.2
2016-May-05 00:42 023 7.2
2016-May-05 00:37 023 6.7
2016-May-05 00:32 023 6.7
2016-May-05 00:27 068 6.7
2016-May-05 00:22 023 6.7
2016-May-05 00:17 045 6.7
2016-May-05 00:12 023 6.1
2016-May-05 00:07 023 6.1
2016-May-05 00:02 023 6.1
2016-May-04 23:57 338 6.1
2016-May-04 23:52 315 6.1
2016-May-04 23:47 023 6.1
2016-May-04 23:42 338 6.1
2016-May-04 23:37 6.1
2016-May-04 23:32 315 0 gusting 1 6.1
2016-May-04 23:27 315 6.1
2016-May-04 23:22 293 6.1
2016-May-04 23:17 270 6.1
2016-May-04 23:12 315 6.1
2016-May-04 23:07 315 6.1
2016-May-04 22:57 315 6.1
2016-May-04 22:52 315 6.1
2016-May-04 22:47 315 0 gusting 1 6.1
2016-May-04 22:42 315 0 gusting 1 6.7
2016-May-04 22:37 315 6.7
2016-May-04 22:32 338 0 gusting 2 6.7
2016-May-04 22:27 315 0 gusting 2 6.7
2016-May-04 22:22 315 0 gusting 2 6.7
2016-May-04 22:17 315 0 gusting 2 6.7
2016-May-04 22:12 315 0 gusting 2 6.7
2016-May-04 22:07 315 0 gusting 1 7.2
2016-May-04 22:02 315 0 gusting 1 7.2